Temp
-12 -12 -12 -12 -11 -11 -12 -12 -10 -10 -11 -10 -11 -10 -10 -10 -10 -10 -10 -10 -9 -8 -8 -8 -8 -7 -7 -7 -7 -8 -8 -7 -7 -7 -7 -7 -7 -7 -8 -8 -8 -8 -8 -8 -8 -8 -8 -9 -9
-12 -12 -12 -12 -11 -11 -12 -12 -12 -11 -11 -11 -11 -11 -12 -11 -10 -10 -10 -10 -9 -9 -8 -8 -8 -8 -8 -8 -8 -8 -7 -8 -7 -7 -7 -7 -7 -7 -7 -8 -8 -8 -8 -8 -8 -9 -8 -9 -9
-12 -12 -12 -12 -12 -11 -12 -12 -12 -12 -10 -11 -11 -11 -11 -11 -10 -10 -10 -10 -10 -9 -9 -9 -9 -8 -8 -8 -8 -8 -8 -8 -8 -7 -7 -7 -7 -7 -8 -8 -8 -8 -8 -8 -9 -9 -9 -9 -9
-12 -12 -12 -12 -12 -12 -12 -12 -12 -11 -11 -10 -12 -11 -10 -11 -11 -11 -11 -11 -10 -10 -10 -10 -10 -9 -9 -8 -8 -8 -8 -8 -8 -8 -8 -8 -7 -7 -8 -8 -8 -8 -8 -8 -9 -9 -9 -9 -9
-12 -12 -11 -11 -11 -12 -12 -12 -12 -13 -13 -12 -12 -12 -11 -11 -11 -11 -10 -11 -11 -10 -10 -10 -10 -10 -9 -8 -8 -8 -8 -8 -8 -8 -8 -8 -8 -8 -8 -8 -8 -8 -8 -9 -9 -10 -9 -9 -9
-12 -12 -11 -11 -11 -11 -11 -12 -13 -12 -13 -12 -12 -11 -11 -12 -12 -12 -12 -11 -11 -11 -10 -11 -10 -10 -9 -9 -8 -8 -8 -8 -8 -8 -8 -8 -8 -8 -8 -8 -8 -8 -8 -9 -9 -10 -10 -9 -9
-11 -11 -11 -11 -11 -12 -12 -12 -12 -12 -12 -11 -11 -11 -11 -11 -12 -12 -12 -12 -11 -12 -12 -11 -10 -10 -10 -9 -9 -8 -8 -8 -8 -8 -8 -8 -8 -8 -8 -8 -8 -8 -9 -9 -9 -10 -10 -9 -9
-11 -11 -11 -12 -12 -13 -12 -12 -12 -13 -13 -12 -11 -11 -11 -11 -12 -12 -12 -12 -12 -12 -12 -11 -10 -10 -10 -10 -9 -8 -8 -8 -8 -8 -8 -8 -8 -8 -9 -9 -8 -9 -9 -9 -9 -10 -10 -9 -9
-11 -11 -12 -12 -12 -13 -12 -12 -12 -13 -13 -11 -10 -10 -11 -11 -12 -12 -12 -12 -12 -11 -11 -11 -10 -10 -10 -10 -9 -9 -8 -8 -8 -8 -9 -9 -9 -9 -9 -9 -9 -9 -9 -9 -9 -9 -10 -9 -9
-11 -11 -12 -12 -13 -13 -12 -12 -11 -12 -13 -13 -11 -10 -11 -11 -12 -12 -13 -12 -12 -12 -12 -12 -11 -10 -10 -10 -9 -9 -9 -9 -9 -8 -8 -9 -9 -9 -9 -9 -9 -9 -9 -9 -9 -9 -10 -9 -9
-11 -12 -12 -12 -12 -12 -12 -12 -11 -11 -11 -11 -11 -11 -11 -11 -12 -12 -12 -12 -12 -13 -12 -12 -12 -11 -11 -10 -10 -10 -9 -9 -9 -9 -9 -9 -9 -9 -9 -9 -9 -9 -9 -9 -9 -9 -9 -10 -9
-11 -12 -12 -12 -12 -12 -12 -12 -12 -11 -11 -10 -11 -11 -11 -11 -12 -12 -12 -12 -12 -13 -12 -13 -12 -12 -11 -11 -10 -10 -10 -10 -9 -9 -9 -9 -9 -9 -9 -9 -9 -9 -9 -9 -9 -9 -9 -9 -9
-12 -12 -12 -12 -13 -12 -12 -12 -13 -12 -11 -11 -11 -11 -11 -12 -12 -12 -12 -12 -12 -12 -12 -12 -13 -12 -12 -11 -11 -10 -10 -10 -10 -10 -9 -9 -9 -9 -9 -10 -10 -10 -9 -9 -9 -9 -9 -9 -9
-12 -12 -12 -12 -13 -13 -13 -12 -13 -12 -12 -12 -11 -11 -11 -12 -12 -12 -12 -12 -13 -12 -12 -12 -13 -13 -12 -12 -11 -11 -11 -11 -10 -10 -10 -9 -9 -10 -10 -10 -10 -10 -10 -10 -10 -10 -10 -9 -9
-13 -12 -12 -13 -13 -13 -14 -14 -13 -13 -13 -13 -12 -12 -12 -12 -12 -12 -12 -12 -12 -13 -12 -13 -13 -13 -13 -12 -11 -11 -11 -11 -11 -10 -10 -10 -10 -10 -10 -10 -10 -10 -10 -10 -10 -10 -10 -10 -9
-13 -13 -13 -13 -14 -14 -14 -13 -14 -14 -14 -14 -13 -13 -13 -12 -12 -12 -12 -12 -12 -12 -12 -12 -12 -12 -12 -12 -12 -11 -11 -12 -11 -11 -10 -11 -10 -10 -10 -10 -10 -10 -10 -10 -10 -10 -10 -10 -10
-13 -13 -12 -13 -14 -13 -13 -12 -13 -14 -13 -14 -13 -13 -12 -12 -12 -13 -12 -12 -12 -12 -12 -12 -12 -12 -12 -12 -12 -12 -12 -12 -11 -11 -11 -11 -11 -11 -11 -11 -11 -10 -10 -11 -11 -10 -11 -10 -10
-13 -13 -13 -13 -14 -13 -13 -12 -12 -13 -13 -13 -14 -13 -12 -12 -12 -13 -12 -12 -12 -12 -12 -13 -13 -12 -12 -13 -13 -12 -12 -12 -12 -12 -11 -11 -11 -11 -11 -11 -11 -11 -11 -11 -11 -11 -11 -11 -11
-13 -13 -13 -14 -13 -14 -13 -13 -12 -13 -13 -13 -13 -13 -13 -12 -12 -13 -13 -12 -12 -12 -12 -12 -12 -12 -12 -13 -13 -13 -13 -13 -13 -13 -12 -12 -11 -11 -11 -11 -11 -11 -11 -11 -11 -11 -11 -11 -11
-14 -14 -14 -14 -14 -14 -14 -13 -14 -14 -14 -13 -13 -13 -14 -13 -13 -13 -13 -13 -13 -13 -12 -12 -12 -12 -12 -13 -13 -13 -13 -13 -13 -13 -12 -12 -12 -12 -11 -11 -11 -11 -11 -11 -11 -12 -11 -11 -11
-18 -17 -16 -15 -15 -16 -14 -14 -15 -16 -15 -15 -15 -15 -15 -15 -14 -13 -13 -13 -13 -13 -13 -13 -13 -13 -13 -13 -13 -13 -13 -13 -13 -13 -13 -12 -12 -12 -11 -11 -12 -12 -11 -12 -11 -11 -12 -12 -12
-22 -22 -22 -21 -19 -18 -17 -14 -17 -18 -17 -16 -15 -15 -15 -17 -17 -15 -14 -14 -14 -14 -13 -13 -13 -13 -13 -13 -13 -13 -13 -13 -14 -13 -13 -13 -13 -12 -12 -12 -11 -12 -13 -12 -12 -12 -12 -12 -12
-22 -22 -23 -23 -23 -22 -20 -17 -18 -19 -18 -18 -18 -15 -17 -18 -16 -17 -16 -15 -15 -14 -14 -14 -13 -13 -13 -13 -12 -13 -13 -13 -13 -13 -13 -14 -13 -13 -13 -12 -12 -12 -12 -12 -12 -12 -12 -12 -12
-23 -23 -24 -25 -25 -25 -24 -21 -20 -21 -20 -19 -19 -17 -16 -19 -18 -16 -14 -14 -14 -14 -13 -13 -13 -13 -13 -13 -12 -13 -13 -13 -13 -13 -13 -13 -13 -13 -13 -13 -13 -12 -12 -13 -13 -13 -13 -12 -12
-25 -24 -25 -25 -26 -26 -26 -24 -23 -22 -20 -20 -20 -19 -19 -18 -18 -16 -14 -14 -13 -14 -13 -13 -12 -12 -13 -13 -13 -13 -13 -13 -13 -13 -13 -13 -12 -13 -13 -12 -12 -12 -12 -12 -12 -13 -13 -12 -12
-24 -25 -26 -26 -26 -26 -26 -26 -26 -23 -20 -20 -20 -20 -19 -19 -18 -18 -15 -13 -13 -13 -13 -13 -13 -13 -13 -12 -13 -13 -13 -13 -14 -13 -13 -13 -13 -13 -13 -13 -13 -12 -12 -13 -13 -13 -13 -12 -14
-25 -25 -26 -26 -27 -27 -27 -27 -26 -23 -21 -20 -20 -20 -20 -20 -20 -18 -16 -15 -14 -13 -14 -14 -14 -14 -13 -13 -13 -13 -13 -13 -14 -13 -13 -13 -13 -13 -13 -13 -13 -13 -13 -13 -12 -12 -14 -14 -13
-26 -26 -26 -26 -27 -26 -26 -26 -25 -23 -22 -21 -20 -20 -20 -20 -20 -20 -17 -15 -14 -15 -15 -15 -15 -15 -15 -14 -14 -14 -14 -13 -14 -14 -13 -14 -14 -13 -13 -13 -13 -13 -13 -13 -12 -13 -14 -14 -14
-27 -26 -26 -26 -26 -26 -26 -26 -26 -24 -23 -21 -20 -20 -20 -19 -20 -20 -18 -17 -16 -15 -15 -16 -17 -16 -16 -15 -15 -15 -15 -15 -15 -14 -14 -14 -14 -13 -13 -13 -13 -13 -13 -13 -13 -13 -14 -13 -14
-26 -26 -26 -26 -26 -25 -25 -25 -25 -25 -24 -22 -21 -20 -20 -20 -20 -20 -19 -19 -18 -17 -17 -16 -16 -17 -17 -17 -16 -16 -15 -15 -16 -15 -15 -14 -14 -14 -14 -13 -13 -13 -13 -13 -13 -13 -13 -13 -13
Height
5853 5857 5858 5861 5865 5867 5866 5867 5864 5865 5863 5863 5862 5864 5863 5863 5866 5862 5864 5868 5870 5873 5875 5877 5880 5882 5882 5883 5885 5886 5888 5890 5892 5894 5895 5893 5890 5889 5889 5890 5890 5890 5890 5889 5888 5886 5884 5882 5881
5850 5853 5855 5857 5860 5864 5863 5863 5863 5861 5860 5858 5859 5861 5863 5862 5863 5861 5864 5864 5871 5872 5873 5877 5878 5882 5883 5884 5886 5887 5889 5890 5892 5895 5896 5895 5892 5890 5890 5890 5891 5891 5890 5890 5889 5887 5885 5884 5882
5847 5849 5851 5852 5855 5861 5861 5860 5858 5859 5860 5857 5857 5859 5862 5863 5863 5863 5860 5868 5870 5872 5873 5876 5878 5881 5883 5884 5885 5887 5890 5891 5892 5894 5895 5896 5893 5891 5891 5891 5891 5891 5891 5890 5889 5887 5885 5884 5883
5842 5846 5847 5847 5851 5856 5858 5856 5857 5857 5850 5847 5854 5857 5860 5858 5861 5863 5864 5864 5868 5871 5871 5874 5876 5880 5882 5884 5886 5886 5888 5891 5893 5894 5895 5896 5893 5892 5892 5892 5892 5892 5892 5891 5890 5887 5886 5884 5883
5837 5840 5840 5843 5847 5852 5855 5854 5852 5852 5850 5850 5856 5854 5859 5860 5860 5863 5864 5864 5866 5870 5871 5872 5876 5878 5881 5883 5884 5885 5887 5889 5891 5894 5894 5895 5894 5893 5893 5893 5893 5893 5893 5891 5890 5887 5885 5885 5883
5831 5833 5837 5838 5840 5844 5847 5847 5847 5847 5844 5848 5851 5853 5856 5858 5860 5862 5863 5865 5866 5866 5871 5871 5875 5877 5878 5882 5883 5884 5886 5887 5889 5891 5893 5894 5894 5893 5893 5893 5893 5893 5893 5891 5889 5887 5884 5884 5883
5825 5828 5832 5833 5835 5839 5840 5842 5843 5844 5844 5843 5846 5849 5854 5858 5860 5861 5863 5863 5866 5866 5870 5872 5873 5876 5876 5879 5881 5883 5884 5886 5887 5889 5891 5892 5892 5892 5893 5893 5892 5893 5892 5891 5888 5885 5884 5883 5883
5821 5826 5828 5830 5831 5831 5834 5836 5838 5840 5839 5838 5839 5841 5851 5852 5858 5857 5857 5858 5861 5865 5867 5870 5872 5873 5876 5876 5878 5881 5883 5885 5886 5887 5889 5890 5890 5892 5892 5893 5892 5892 5892 5890 5887 5885 5883 5882 5882
5819 5824 5827 5827 5828 5827 5827 5828 5831 5833 5836 5837 5836 5838 5842 5846 5852 5852 5853 5855 5859 5861 5863 5866 5869 5871 5872 5875 5876 5878 5880 5883 5884 5885 5885 5887 5888 5890 5891 5892 5891 5891 5891 5890 5888 5885 5882 5882 5882
5816 5820 5824 5824 5824 5823 5823 5822 5824 5825 5829 5832 5831 5832 5836 5840 5846 5847 5846 5849 5852 5855 5859 5862 5864 5867 5870 5872 5874 5875 5878 5880 5882 5883 5883 5884 5885 5888 5890 5891 5891 5890 5889 5889 5888 5886 5882 5882 5881
5811 5816 5817 5820 5820 5819 5819 5819 5819 5820 5822 5826 5827 5830 5833 5836 5838 5842 5840 5840 5843 5847 5851 5856 5860 5864 5867 5869 5870 5872 5875 5879 5879 5880 5881 5881 5883 5885 5888 5889 5889 5889 5889 5888 5887 5885 5883 5882 5881
5806 5809 5810 5813 5812 5813 5813 5815 5815 5819 5819 5823 5824 5825 5827 5830 5829 5835 5837 5839 5838 5842 5844 5850 5855 5859 5862 5864 5867 5870 5873 5876 5876 5877 5878 5879 5881 5883 5885 5887 5888 5888 5888 5887 5886 5885 5883 5882 5880
5797 5799 5803 5807 5808 5807 5809 5812 5811 5814 5815 5817 5821 5822 5825 5828 5829 5827 5831 5833 5835 5836 5840 5843 5850 5854 5857 5859 5863 5866 5870 5872 5873 5875 5876 5876 5879 5881 5883 5885 5886 5886 5886 5887 5885 5883 5881 5881 5879
5790 5792 5794 5798 5801 5800 5800 5804 5807 5806 5807 5808 5812 5816 5819 5823 5825 5828 5829 5830 5832 5834 5838 5840 5843 5849 5853 5856 5858 5862 5864 5867 5869 5871 5872 5873 5876 5878 5881 5882 5884 5884 5884 5885 5886 5883 5881 5881 5880
5781 5782 5783 5786 5788 5790 5789 5794 5798 5801 5798 5801 5803 5808 5811 5815 5820 5821 5824 5827 5829 5830 5834 5837 5841 5845 5848 5851 5853 5855 5859 5863 5865 5867 5868 5869 5872 5875 5878 5880 5881 5882 5882 5882 5884 5883 5881 5879 5878
5767 5769 5772 5773 5772 5773 5779 5784 5788 5793 5791 5791 5796 5801 5806 5808 5812 5815 5818 5821 5824 5827 5830 5833 5836 5838 5841 5845 5848 5850 5855 5858 5860 5862 5864 5866 5869 5872 5874 5877 5877 5879 5879 5879 5880 5880 5880 5878 5876
5755 5756 5758 5761 5757 5762 5763 5768 5777 5779 5786 5784 5784 5791 5797 5801 5804 5809 5811 5815 5819 5821 5824 5827 5829 5831 5835 5839 5843 5844 5849 5854 5856 5858 5860 5862 5865 5867 5869 5872 5873 5875 5876 5876 5876 5877 5878 5879 5877
5741 5742 5743 5744 5749 5751 5752 5758 5767 5769 5771 5775 5776 5775 5784 5791 5798 5801 5806 5808 5813 5816 5817 5818 5823 5825 5828 5832 5835 5839 5844 5849 5850 5852 5855 5858 5860 5862 5865 5867 5868 5871 5873 5874 5874 5874 5874 5874 5875
5722 5723 5724 5727 5730 5736 5738 5747 5753 5760 5763 5762 5767 5767 5768 5778 5789 5792 5797 5801 5805 5807 5811 5815 5818 5821 5825 5828 5831 5834 5838 5839 5843 5845 5849 5852 5855 5857 5859 5862 5864 5865 5868 5869 5871 5871 5872 5871 5871
5700 5702 5703 5707 5710 5711 5723 5732 5740 5745 5750 5751 5754 5756 5758 5764 5773 5781 5786 5790 5796 5800 5805 5808 5810 5807 5818 5823 5826 5828 5830 5832 5835 5840 5843 5847 5849 5852 5854 5856 5859 5860 5863 5864 5866 5868 5868 5867 5868
5679 5679 5680 5684 5688 5690 5700 5713 5722 5723 5727 5731 5731 5738 5745 5750 5758 5767 5775 5780 5786 5791 5796 5802 5803 5808 5811 5814 5817 5821 5824 5828 5829 5832 5836 5840 5842 5845 5849 5851 5854 5854 5856 5859 5861 5863 5864 5864 5863
5671 5669 5664 5662 5663 5667 5677 5690 5699 5702 5706 5709 5718 5721 5725 5739 5743 5752 5761 5766 5775 5782 5789 5795 5796 5799 5805 5809 5811 5814 5817 5821 5823 5826 5829 5832 5835 5839 5842 5845 5847 5850 5850 5852 5853 5856 5858 5859 5859
5660 5657 5655 5652 5649 5645 5656 5667 5673 5684 5690 5693 5700 5705 5708 5716 5723 5736 5746 5755 5766 5773 5779 5784 5789 5792 5797 5802 5805 5808 5810 5813 5816 5820 5822 5826 5830 5833 5835 5838 5840 5842 5843 5844 5846 5848 5850 5852 5853
5649 5646 5643 5639 5637 5634 5641 5649 5652 5669 5673 5679 5684 5689 5694 5703 5711 5720 5730 5739 5752 5755 5762 5770 5778 5784 5788 5792 5797 5800 5802 5805 5810 5813 5815 5819 5823 5826 5827 5830 5834 5835 5836 5837 5837 5839 5843 5845 5846
5637 5631 5629 5630 5627 5626 5628 5634 5635 5651 5657 5665 5671 5678 5684 5692 5700 5708 5716 5725 5738 5747 5753 5760 5767 5771 5776 5779 5786 5790 5793 5796 5802 5806 5810 5811 5814 5819 5820 5822 5825 5826 5827 5828 5829 5830 5834 5838 5840
5629 5625 5622 5621 5620 5620 5619 5617 5616 5634 5645 5651 5659 5667 5675 5681 5690 5699 5706 5714 5723 5735 5743 5750 5759 5765 5769 5772 5776 5781 5785 5788 5794 5799 5803 5804 5806 5810 5813 5815 5817 5817 5817 5819 5819 5821 5825 5827 5830
5622 5620 5617 5615 5615 5614 5612 5610 5613 5625 5634 5640 5650 5658 5666 5673 5682 5692 5699 5706 5714 5724 5734 5741 5747 5754 5760 5766 5771 5775 5778 5782 5786 5791 5796 5799 5800 5802 5806 5807 5810 5810 5809 5811 5812 5811 5817 5817 5820
5619 5618 5616 5614 5612 5611 5608 5606 5606 5616 5629 5632 5643 5653 5659 5667 5673 5683 5694 5699 5705 5712 5723 5731 5736 5741 5749 5756 5762 5768 5773 5775 5778 5782 5787 5791 5794 5795 5797 5799 5803 5803 5803 5803 5802 5805 5808 5809 5810
5617 5616 5614 5613 5612 5610 5607 5603 5607 5610 5617 5625 5632 5642 5649 5658 5667 5674 5684 5692 5698 5703 5712 5721 5727 5733 5738 5746 5753 5759 5763 5767 5769 5774 5777 5782 5785 5787 5790 5791 5794 5796 5798 5798 5797 5797 5801 5802 5802
5617 5617 5615 5614 5613 5608 5603 5602 5603 5607 5612 5620 5628 5639 5646 5654 5659 5666 5674 5681 5686 5692 5699 5708 5718 5724 5728 5733 5740 5746 5752 5757 5761 5765 5769 5772 5777 5780 5783 5784 5786 5788 5790 5791 5791 5790 5791 5792 5793
Wind_Speed
20 18 18 18 17 15 22 14 17 14 17 5 14 20 16 21 25 24 22 14 14 17 17 16 14 14 16 16 14 13 12 11 8 7 6 6 6 6 6 6 6 5 5 7 9 10 11 12 12
22 22 21 20 20 16 24 20 21 14 14 22 22 15 19 23 28 32 15 26 15 17 19 17 16 14 14 14 15 13 11 10 8 7 7 6 5 4 4 4 4 2 4 6 8 9 10 10 12
24 20 26 24 23 17 18 29 30 25 15 15 21 23 18 21 27 14 25 12 20 14 13 13 13 15 15 15 15 14 12 10 8 8 8 7 5 4 3 3 2 1 2 6 8 7 9 11 12
24 24 26 29 27 23 20 24 21 30 24 17 15 20 15 10 13 15 10 13 27 15 12 10 8 13 15 16 16 14 13 11 10 10 10 9 7 5 4 4 3 2 4 6 9 9 9 10 11
25 24 27 29 27 23 24 23 26 26 22 25 20 20 20 17 3 7 13 13 30 22 7 8 9 9 12 15 17 15 15 13 12 12 11 12 8 7 6 5 4 4 5 8 11 10 10 8 8
25 25 26 27 28 25 28 27 28 29 22 27 23 26 17 13 19 14 11 15 10 20 17 4 7 8 10 13 15 17 17 16 14 14 14 13 10 8 8 7 6 6 7 11 12 11 10 8 8
24 25 23 26 26 23 26 29 34 31 31 35 32 25 20 17 18 20 19 16 15 10 9 10 10 9 11 13 14 16 17 17 16 16 16 14 12 10 10 9 7 7 10 13 14 12 9 8 8
19 16 14 12 10 16 28 32 33 28 24 32 35 36 24 28 25 24 26 18 15 14 15 14 14 14 14 12 15 16 18 18 17 17 17 15 13 11 12 11 9 7 10 14 16 11 7 9 9
19 14 10 10 9 24 29 37 36 23 20 30 36 40 35 31 26 24 27 15 17 20 19 20 21 18 16 15 15 17 18 19 18 18 18 16 14 12 14 12 10 10 9 13 17 11 7 9 7
22 19 13 17 19 28 30 35 41 36 32 33 37 38 33 26 20 17 25 26 24 23 20 22 23 21 18 20 17 15 16 18 18 20 19 17 15 13 14 14 12 11 12 13 16 13 9 7 6
26 22 23 20 23 28 29 31 35 36 37 34 29 25 24 21 18 18 22 29 33 31 28 23 25 25 22 20 20 18 15 16 18 21 20 17 16 15 16 16 14 12 13 13 14 15 10 7 7
29 27 28 26 30 32 32 33 34 32 34 26 24 22 23 22 20 19 20 22 28 31 34 28 25 26 24 21 21 21 18 15 17 19 19 18 17 16 17 17 15 14 13 13 12 14 13 8 8
36 35 33 30 30 35 37 36 38 35 34 32 28 28 26 19 22 16 17 18 21 30 28 31 24 24 24 24 22 23 23 17 17 18 18 18 18 18 19 18 17 15 14 14 12 14 17 13 10
40 39 39 37 35 37 40 38 36 38 38 36 34 31 27 24 21 21 18 18 18 20 23 28 27 26 25 26 26 25 24 22 20 18 18 18 18 19 20 19 18 17 16 14 13 13 15 16 13
43 43 43 42 40 39 42 40 37 38 41 40 38 35 33 29 25 23 24 22 21 23 22 23 29 30 32 30 30 30 25 25 24 21 18 18 19 19 21 21 20 19 18 16 15 14 14 17 16
45 45 44 44 45 46 45 45 42 39 43 44 42 38 35 33 29 28 29 27 25 25 23 26 28 31 35 35 33 35 31 26 27 25 21 18 18 20 22 22 23 21 19 19 17 16 14 16 17
47 48 49 47 51 51 52 51 46 45 43 48 49 45 39 37 36 33 34 30 28 28 28 27 29 30 34 36 37 37 34 30 28 27 24 21 18 20 22 24 25 24 21 20 19 19 17 14 14
51 52 52 54 52 53 53 52 51 50 51 51 50 53 47 43 39 39 37 35 32 31 30 31 32 31 31 36 37 38 36 31 29 27 25 26 23 21 22 25 27 26 24 23 22 22 20 18 16
58 60 60 60 59 56 57 55 53 52 55 55 54 54 56 50 43 42 40 38 37 38 35 33 33 31 31 33 32 35 34 38 33 35 31 29 27 25 23 25 29 29 27 26 24 23 22 21 20
62 65 67 67 68 68 61 59 55 55 54 56 58 57 56 54 48 46 44 44 42 38 36 36 35 35 30 30 32 32 30 31 36 40 38 35 31 30 28 27 27 30 30 29 28 25 24 23 21
47 56 62 68 71 69 72 67 59 57 59 59 58 53 51 51 52 48 46 46 44 41 40 37 37 38 38 35 34 33 33 32 28 29 35 41 41 38 34 31 29 28 30 32 32 29 27 26 23
22 28 37 45 59 67 70 73 60 54 58 61 59 60 53 42 48 48 47 48 45 45 42 41 42 41 39 37 36 35 32 31 30 28 28 34 44 40 38 35 35 33 34 33 33 32 30 28 27
32 33 34 35 41 51 50 70 63 58 58 55 56 63 53 47 52 44 47 50 44 44 43 44 44 43 42 40 37 37 36 33 32 32 27 16 21 31 37 33 32 35 40 40 39 37 35 31 29
30 31 35 32 28 35 38 45 66 54 56 56 55 62 63 55 54 57 55 55 53 52 52 51 48 46 44 43 43 40 41 40 36 36 31 25 27 23 25 32 38 39 39 42 41 45 38 36 32
28 31 28 26 26 24 26 33 57 51 63 58 56 60 62 63 63 63 60 57 53 55 54 52 51 50 48 48 47 46 44 43 39 37 33 31 32 25 26 25 21 24 33 41 47 47 42 41 37
22 20 15 17 18 16 21 36 55 52 39 66 60 55 60 60 66 66 69 65 59 54 56 54 51 51 52 52 50 49 49 46 41 38 36 33 34 29 27 24 24 26 20 24 38 52 47 45 45
15 15 18 12 11 11 11 33 49 51 43 45 63 57 50 55 56 63 66 68 69 63 54 51 52 53 54 52 52 52 50 49 43 40 37 35 34 32 28 29 25 24 19 21 31 35 49 46 49
6 10 7 9 10 9 12 21 31 41 62 39 53 65 55 52 55 56 63 70 68 63 60 56 54 55 53 52 50 48 50 50 48 43 39 34 31 32 29 29 26 24 21 20 21 26 29 40 49
6 6 5 5 4 12 15 19 44 47 49 52 46 54 68 70 62 59 61 60 64 65 58 50 47 49 49 49 47 45 44 45 47 43 39 36 30 30 29 29 27 26 26 25 24 22 24 28 29
8 4 1 1 8 10 11 21 43 44 40 19 45 50 46 66 63 64 61 61 57 58 57 59 53 46 46 47 46 46 45 44 41 43 44 37 30 30 29 30 29 28 28 29 29 25 23 25 32
Wind_Direction
210 223 230 231 230 186 184 203 210 205 217 262 261 251 267 270 280 277 183 185 184 195 193 188 190 188 177 172 176 181 189 193 205 226 225 197 172 149 132 122 108 87 61 45 27 14 11 13 16
217 229 232 237 241 204 197 207 232 234 222 228 229 247 261 272 265 274 226 171 184 187 188 192 191 196 190 181 183 183 198 202 209 234 249 235 201 168 149 143 124 83 49 18 8 357 350 358 6
248 238 232 236 240 228 214 215 220 235 228 206 222 231 251 252 257 299 301 279 162 167 167 187 197 203 203 191 192 189 202 212 215 232 245 245 236 211 189 175 163 135 21 351 350 337 329 338 356
253 247 245 243 238 235 228 229 237 230 236 209 236 236 227 271 265 261 250 176 190 160 156 159 186 212 213 204 202 197 202 216 224 235 245 242 244 243 221 205 209 251 326 353 338 318 309 322 347
250 249 247 247 249 236 234 241 249 261 277 278 252 256 248 255 174 353 277 193 185 179 152 157 177 203 220 214 210 206 206 215 222 236 241 244 246 247 231 222 227 274 320 334 330 308 295 306 333
245 242 241 248 249 235 229 226 237 248 255 267 269 249 250 262 277 291 251 249 185 182 200 192 205 204 209 222 216 211 211 214 220 229 241 241 244 244 230 228 246 292 316 326 325 306 281 298 316
243 245 246 252 253 245 228 227 236 237 244 254 249 258 252 268 274 276 253 228 218 193 225 225 236 231 211 222 221 220 218 219 219 226 236 239 240 242 231 232 257 296 322 334 327 308 288 294 311
245 244 244 252 244 220 228 228 228 227 244 257 257 265 255 273 276 253 259 248 197 225 224 236 231 236 230 220 221 229 230 227 225 225 231 234 236 237 233 237 261 285 324 337 333 317 295 293 326
254 248 232 228 216 210 221 218 219 223 237 240 251 262 267 268 267 260 253 241 212 211 221 229 235 236 236 234 225 225 230 235 229 230 227 228 232 234 232 238 257 281 317 334 343 330 293 293 314
253 254 238 228 207 214 222 225 225 222 220 231 243 253 263 264 263 253 242 249 239 232 229 225 226 232 232 235 234 232 236 236 234 233 229 223 228 235 234 243 256 278 303 327 345 339 301 299 295
257 254 245 236 230 235 236 244 237 232 239 243 245 255 264 264 253 236 233 232 236 228 224 225 227 222 226 232 236 237 237 243 238 235 231 224 227 230 233 244 259 272 295 316 337 340 319 303 292
261 258 253 241 244 244 240 241 251 256 253 251 251 256 262 259 242 239 235 240 230 227 228 213 226 226 225 228 233 237 235 242 242 240 237 232 229 228 232 242 257 270 287 305 324 331 332 305 294
260 257 254 248 250 254 249 243 249 251 255 257 249 252 253 248 261 254 243 245 238 224 228 216 217 228 230 229 230 231 232 234 243 245 242 236 231 232 232 240 258 270 283 296 313 325 332 324 297
258 259 258 253 247 249 254 253 251 255 257 258 252 248 251 244 248 256 252 246 243 242 237 232 223 221 230 232 227 231 232 228 232 240 244 241 236 232 234 240 253 268 281 291 302 311 318 323 309
258 256 257 255 251 245 246 247 248 247 255 256 256 255 252 250 239 246 250 243 235 234 229 224 230 230 226 228 228 228 231 229 226 232 236 245 240 236 236 241 251 264 277 288 295 299 314 318 317
259 258 252 252 250 246 241 239 239 238 248 253 253 252 250 249 249 243 246 243 239 238 231 228 227 228 231 227 230 230 229 230 228 228 229 237 241 240 238 240 249 258 270 281 291 299 309 316 316
263 259 258 252 248 247 244 238 230 236 233 244 253 250 249 247 245 240 243 241 238 236 233 231 230 231 230 233 230 233 231 231 234 231 227 229 234 239 241 244 248 255 264 277 287 292 299 305 307
262 260 258 256 252 252 250 249 242 232 231 233 242 252 247 245 245 244 238 239 237 235 232 230 228 230 234 231 230 235 237 236 242 242 235 234 226 231 239 242 249 253 260 269 279 288 296 302 301
260 257 254 254 253 249 250 250 249 244 239 233 234 243 250 247 241 239 240 237 234 233 230 229 235 232 233 235 240 242 242 241 239 244 240 243 238 228 234 242 247 252 254 263 272 281 289 295 300
259 254 252 249 248 248 244 246 246 248 244 241 236 231 241 245 243 238 234 233 231 232 231 232 227 225 234 233 237 237 238 240 240 237 243 242 246 244 239 237 240 252 257 259 264 272 279 286 293
264 261 256 250 245 245 243 239 241 243 243 239 231 233 230 235 239 237 233 232 231 229 228 229 232 227 232 233 236 240 243 244 250 241 239 243 245 248 246 245 247 246 254 260 263 266 271 278 284
298 292 279 267 255 248 240 237 231 231 236 237 226 228 226 231 237 232 227 229 227 226 227 225 231 233 232 235 239 242 245 244 249 251 246 245 242 246 245 247 248 250 253 257 262 264 265 269 275
296 299 296 280 268 259 244 236 225 222 221 226 217 220 222 221 223 232 231 224 221 224 224 225 226 231 233 235 238 242 245 244 245 258 257 269 266 251 246 246 252 257 256 260 258 255 260 261 267
299 299 285 276 283 266 253 236 231 217 210 212 207 212 218 216 217 225 226 224 218 220 219 221 226 228 230 233 237 239 242 243 241 246 255 259 264 255 252 256 259 265 264 254 251 255 255 260 259
303 307 288 263 269 272 245 224 222 213 212 203 203 209 212 217 221 224 227 224 220 221 226 226 226 226 228 230 231 236 240 242 242 242 246 249 255 252 253 255 259 273 276 264 259 253 249 256 259
305 308 296 270 267 250 244 215 214 209 199 206 202 203 213 215 221 226 229 229 225 219 223 229 230 230 230 233 231 233 236 241 242 241 243 247 252 251 251 259 263 276 278 301 270 253 246 249 251
324 316 288 261 266 262 263 215 214 208 200 205 206 205 203 209 216 227 231 232 233 231 221 225 231 233 235 236 237 237 238 242 243 242 240 240 245 252 252 253 251 265 273 284 301 256 247 252 251
307 330 317 246 282 234 259 234 203 196 209 206 212 213 206 209 215 218 228 234 235 234 226 226 230 234 236 239 239 240 243 242 246 247 244 243 244 250 254 252 249 249 266 269 287 291 255 267 259
306 326 310 308 266 271 283 266 212 208 202 211 206 213 211 215 214 220 234 243 244 242 237 222 224 233 238 241 241 240 242 249 244 247 249 248 242 243 244 249 251 248 249 254 263 276 288 296 304
95 85 69 301 313 300 290 242 212 221 231 207 197 204 218 212 211 212 224 241 245 244 247 247 238 239 235 238 238 238 238 239 244 250 248 246 238 235 235 241 249 251 252 250 257 255 264 279 296